Time,TemperatureF,DewpointF,PressureIn,WindDirection,WindDirectionDegrees,WindSpeedMPH,WindSpeedGustMPH,Humidity,HourlyPrecipIn,Conditions,Clouds,dailyrainin,SoftwareType,DateUTC
2013-01-17 05:23:00,10.0,-3.0,30.31,NW,320,0.0,0.0,56,0.00,,,0.00,,2013-01-17 11:23:00,
2013-01-17 05:33:00,9.0,-3.0,30.31,NNW,332,6.0,9.0,56,0.00,,,0.00,,2013-01-17 11:33:00,
2013-01-17 05:43:00,9.0,-3.0,30.31,NNW,332,6.0,9.0,56,0.00,,,0.00,,2013-01-17 11:43:00,
2013-01-17 05:53:00,9.0,-3.0,30.31,NNW,333,3.0,8.0,56,0.00,,,0.00,,2013-01-17 11:53:00,
2013-01-17 06:02:00,9.0,-3.0,30.34,NW,313,3.0,6.0,56,0.00,,,0.00,,2013-01-17 12:02:00,
2013-01-17 06:12:00,9.0,-3.0,30.34,NW,313,3.0,6.0,56,0.00,,,0.00,,2013-01-17 12:12:00,
2013-01-17 06:22:00,8.0,-4.0,30.34,NW,324,6.0,9.0,56,0.00,,,0.00,,2013-01-17 12:22:00,
2013-01-17 06:32:00,8.0,-4.0,30.34,NW,324,6.0,9.0,56,0.00,,,0.00,,2013-01-17 12:32:00,
2013-01-17 06:42:00,8.0,-4.0,30.34,NW,324,6.0,9.0,56,0.00,,,0.00,,2013-01-17 12:42:00,
2013-01-17 06:53:00,8.0,-4.0,30.34,North,0,7.0,7.0,56,0.00,,,0.00,,2013-01-17 12:53:00,
2013-01-17 07:03:00,8.0,-4.0,30.34,NNW,332,6.0,10.0,56,0.00,,,0.00,,2013-01-17 13:03:00,
2013-01-17 07:12:00,8.0,-4.0,30.34,NNW,332,6.0,10.0,56,0.00,,,0.00,,2013-01-17 13:12:00,
2013-01-17 07:22:00,8.0,-4.0,30.34,WNW,296,0.0,0.0,56,0.00,,,0.00,,2013-01-17 13:22:00,
2013-01-17 07:33:00,7.0,-5.0,30.34,WNW,303,0.0,0.0,56,0.00,,,0.00,,2013-01-17 13:33:00,
2013-01-17 07:43:00,7.0,-5.0,30.34,WNW,303,0.0,0.0,56,0.00,,,0.00,,2013-01-17 13:43:00,
2013-01-17 07:53:00,7.0,-5.0,30.34,NNW,332,0.0,6.0,56,0.00,,,0.00,,2013-01-17 13:53:00,
2013-01-17 08:03:00,7.0,-5.0,30.37,North,357,0.0,10.0,56,0.00,,,0.00,,2013-01-17 14:03:00,
2013-01-17 08:12:00,7.0,-5.0,30.37,North,357,0.0,10.0,56,0.00,,,0.00,,2013-01-17 14:12:00,
2013-01-17 08:23:00,8.0,-4.0,30.37,NW,322,0.0,0.0,56,0.00,,,0.00,,2013-01-17 14:23:00,
2013-01-17 08:33:00,10.0,-3.0,30.37,WSW,247,9.0,10.0,56,0.00,,,0.00,,2013-01-17 14:33:00,
2013-01-17 08:42:00,10.0,-3.0,30.37,WSW,247,9.0,10.0,56,0.00,,,0.00,,2013-01-17 14:42:00,
2013-01-17 08:53:00,10.0,-3.0,30.37,WNW,286,8.0,8.0,56,0.00,,,0.00,,2013-01-17 14:53:00,
2013-01-17 09:03:00,11.0,-2.0,30.37,NW,319,0.0,0.0,56,0.00,,,0.00,,2013-01-17 15:03:00,
2013-01-17 09:12:00,11.0,-2.0,30.37,NW,319,0.0,0.0,56,0.00,,,0.00,,2013-01-17 15:12:00,
2013-01-17 09:22:00,12.0,-1.0,30.40,West,275,0.0,0.0,56,0.00,,,0.00,,2013-01-17 15:22:00,
2013-01-17 09:33:00,13.0,0.0,30.37,West,273,0.0,0.0,56,0.00,,,0.00,,2013-01-17 15:33:00,
2013-01-17 09:43:00,13.0,0.0,30.37,West,273,0.0,0.0,56,0.00,,,0.00,,2013-01-17 15:43:00,
2013-01-17 09:53:00,14.0,1.0,30.40,WSW,250,3.0,8.0,56,0.00,,,0.00,,2013-01-17 15:53:00,
2013-01-17 10:02:00,15.0,-2.0,30.37,SW,228,3.0,10.0,45,0.00,,,0.00,,2013-01-17 16:02:00,
2013-01-17 10:12:00,15.0,-2.0,30.37,SW,228,3.0,10.0,45,0.00,,,0.00,,2013-01-17 16:12:00,
2013-01-17 10:22:00,16.0,-2.0,30.40,West,268,6.0,6.0,44,0.00,,,0.00,,2013-01-17 16:22:00,
2013-01-17 10:33:00,17.0,-1.0,30.40,West,272,4.0,6.0,44,0.00,,,0.00,,2013-01-17 16:33:00,
2013-01-17 10:43:00,17.0,-1.0,30.40,West,272,4.0,6.0,44,0.00,,,0.00,,2013-01-17 16:43:00,
2013-01-17 10:53:00,18.0,-1.0,30.40,NW,326,0.0,6.0,43,0.00,,,0.00,,2013-01-17 16:53:00,
2013-01-17 11:03:00,19.0,0.0,30.40,NW,304,0.0,3.0,43,0.00,,,0.00,,2013-01-17 17:03:00,
2013-01-17 11:12:00,19.0,0.0,30.40,NW,304,0.0,3.0,43,0.00,,,0.00,,2013-01-17 17:12:00,
2013-01-17 11:22:00,20.0,0.0,30.40,WSW,258,6.0,8.0,41,0.00,,,0.00,,2013-01-17 17:22:00,
2013-01-17 11:33:00,20.0,0.0,30.40,West,270,5.0,9.0,41,0.00,,,0.00,,2013-01-17 17:33:00,
2013-01-17 11:43:00,20.0,0.0,30.40,West,270,5.0,9.0,41,0.00,,,0.00,,2013-01-17 17:43:00,
2013-01-17 11:53:00,21.0,1.0,30.40,WNW,285,10.0,10.0,40,0.00,,,0.00,,2013-01-17 17:53:00,
2013-01-17 12:03:00,21.0,1.0,30.37,SSW,202,0.0,6.0,40,0.00,,,0.00,,2013-01-17 18:03:00,
2013-01-17 12:12:00,21.0,1.0,30.37,SSW,202,0.0,6.0,40,0.00,,,0.00,,2013-01-17 18:12:00,
2013-01-17 12:22:00,23.0,3.0,30.37,NW,308,5.0,6.0,41,0.00,,,0.00,,2013-01-17 18:22:00,
2013-01-17 12:33:00,23.0,3.0,30.37,West,272,8.0,8.0,41,0.00,,,0.00,,2013-01-17 18:33:00,
2013-01-17 12:43:00,23.0,3.0,30.37,West,272,8.0,8.0,41,0.00,,,0.00,,2013-01-17 18:43:00,
2013-01-17 12:53:00,24.0,4.0,30.37,West,265,3.0,8.0,42,0.00,,,0.00,,2013-01-17 18:53:00,
2013-01-17 13:03:00,26.0,6.0,30.37,NW,304,0.0,0.0,41,0.00,,,0.00,,2013-01-17 19:03:00,
2013-01-17 13:12:00,26.0,6.0,30.37,NW,304,0.0,0.0,41,0.00,,,0.00,,2013-01-17 19:12:00,
2013-01-17 13:22:00,28.0,7.0,30.34,WSW,237,5.0,5.0,41,0.00,,,0.00,,2013-01-17 19:22:00,
2013-01-17 13:33:00,27.0,6.0,30.34,WNW,301,6.0,6.0,41,0.00,,,0.00,,2013-01-17 19:33:00,
2013-01-17 13:42:00,27.0,6.0,30.34,WNW,301,6.0,6.0,41,0.00,,,0.00,,2013-01-17 19:42:00,
2013-01-17 13:53:00,26.0,6.0,30.37,WNW,288,5.0,8.0,42,0.00,,,0.00,,2013-01-17 19:53:00,
2013-01-17 14:03:00,27.0,6.0,30.34,NNW,338,6.0,6.0,41,0.00,,,0.00,,2013-01-17 20:03:00,
2013-01-17 14:12:00,27.0,6.0,30.34,NNW,338,6.0,6.0,41,0.00,,,0.00,,2013-01-17 20:12:00,
2013-01-17 14:23:00,27.0,6.0,30.34,North,0,5.0,12.0,41,0.00,,,0.00,,2013-01-17 20:23:00,
2013-01-17 14:33:00,26.0,6.0,30.34,NW,318,10.0,13.0,42,0.00,,,0.00,,2013-01-17 20:33:00,
2013-01-17 14:43:00,26.0,6.0,30.34,NW,318,10.0,13.0,42,0.00,,,0.00,,2013-01-17 20:43:00,
2013-01-17 14:54:00,26.0,7.0,30.34,WNW,287,10.0,19.0,44,0.00,,,0.00,,2013-01-17 20:54:00,
2013-01-17 15:03:00,26.0,8.0,30.34,North,0,6.0,9.0,45,0.00,,,0.00,,2013-01-17 21:03:00,
2013-01-17 15:12:00,26.0,8.0,30.34,North,0,6.0,9.0,45,0.00,,,0.00,,2013-01-17 21:12:00,
2013-01-17 15:23:00,26.0,9.0,30.34,WNW,294,5.0,8.0,47,0.00,,,0.00,,2013-01-17 21:23:00,
2013-01-17 15:33:00,26.0,9.0,30.34,NNW,332,0.0,13.0,47,0.00,,,0.00,,2013-01-17 21:33:00,
2013-01-17 15:42:00,26.0,9.0,30.34,NNW,332,0.0,13.0,47,0.00,,,0.00,,2013-01-17 21:42:00,
2013-01-17 15:53:00,26.0,9.0,30.34,WNW,289,8.0,9.0,47,0.00,,,0.00,,2013-01-17 21:53:00,
2013-01-17 16:03:00,26.0,9.0,30.34,WNW,287,6.0,15.0,48,0.00,,,0.00,,2013-01-17 22:03:00,
2013-01-17 16:12:00,26.0,9.0,30.34,WNW,287,6.0,15.0,48,0.00,,,0.00,,2013-01-17 22:12:00,
2013-01-17 16:23:00,26.0,9.0,30.37,WNW,291,8.0,8.0,48,0.00,,,0.00,,2013-01-17 22:23:00,
2013-01-17 16:33:00,26.0,9.0,30.37,WNW,291,6.0,6.0,48,0.00,,,0.00,,2013-01-17 22:33:00,
2013-01-17 16:42:00,26.0,9.0,30.37,WNW,291,6.0,6.0,48,0.00,,,0.00,,2013-01-17 22:42:00,
2013-01-17 16:53:00,25.0,8.0,30.37,WNW,291,5.0,6.0,48,0.00,,,0.00,,2013-01-17 22:53:00,
2013-01-17 17:03:00,24.0,8.0,30.34,NNW,335,0.0,5.0,49,0.00,,,0.00,,2013-01-17 23:03:00,
2013-01-17 17:12:00,24.0,8.0,30.34,NNW,335,0.0,5.0,49,0.00,,,0.00,,2013-01-17 23:12:00,
2013-01-17 17:22:00,23.0,8.0,30.37,NNW,330,0.0,0.0,52,0.00,,,0.00,,2013-01-17 23:22:00,
2013-01-17 17:32:00,22.0,7.0,30.37,NNW,330,0.0,0.0,52,0.00,,,0.00,,2013-01-17 23:32:00,
2013-01-17 17:42:00,22.0,7.0,30.37,NNW,330,0.0,0.0,52,0.00,,,0.00,,2013-01-17 23:42:00,
2013-01-17 17:53:00,21.0,7.0,30.37,NNW,330,0.0,0.0,53,0.00,,,0.00,,2013-01-17 23:53:00,
2013-01-17 18:02:00,20.0,6.0,30.37,NNW,330,0.0,0.0,53,0.00,,,0.00,,2013-01-18 00:02:00,
2013-01-17 18:12:00,20.0,6.0,30.37,NNW,330,0.0,0.0,53,0.00,,,0.00,,2013-01-18 00:12:00,
2013-01-17 18:23:00,20.0,7.0,30.37,NNW,330,0.0,0.0,56,0.00,,,0.00,,2013-01-18 00:23:00,
2013-01-17 18:32:00,20.0,7.0,30.37,NNW,330,0.0,0.0,56,0.00,,,0.00,,2013-01-18 00:32:00,
2013-01-17 18:42:00,21.0,9.0,30.37,NNW,330,0.0,0.0,59,0.00,,,0.00,,2013-01-18 00:42:00,
2013-01-17 18:53:00,22.0,10.0,30.37,NNW,330,0.0,0.0,58,0.00,,,0.00,,2013-01-18 00:53:00,
2013-01-17 19:02:00,22.0,10.0,30.37,West,271,0.0,0.0,59,0.00,,,0.00,,2013-01-18 01:02:00,
2013-01-17 19:12:00,22.0,10.0,30.37,West,271,0.0,0.0,59,0.00,,,0.00,,2013-01-18 01:12:00,
2013-01-17 19:22:00,20.0,8.0,30.37,West,274,0.0,0.0,60,0.00,,,0.00,,2013-01-18 01:22:00,
2013-01-17 19:33:00,20.0,9.0,30.37,West,261,0.0,0.0,61,0.00,,,0.00,,2013-01-18 01:33:00,
2013-01-17 19:42:00,20.0,9.0,30.37,West,261,0.0,0.0,61,0.00,,,0.00,,2013-01-18 01:42:00,
2013-01-17 19:53:00,19.0,9.0,30.37,West,261,0.0,0.0,63,0.00,,,0.00,,2013-01-18 01:53:00,
2013-01-17 20:02:00,18.0,8.0,30.37,West,261,0.0,0.0,63,0.00,,,0.00,,2013-01-18 02:02:00,
2013-01-17 20:12:00,18.0,8.0,30.37,West,261,0.0,0.0,63,0.00,,,0.00,,2013-01-18 02:12:00,
2013-01-17 20:22:00,18.0,8.0,30.37,West,261,0.0,0.0,63,0.00,,,0.00,,2013-01-18 02:22:00,
2013-01-17 20:32:00,19.0,10.0,30.37,West,261,0.0,0.0,66,0.00,,,0.00,,2013-01-18 02:32:00,
2013-01-17 20:42:00,19.0,10.0,30.37,West,261,0.0,0.0,66,0.00,,,0.00,,2013-01-18 02:42:00,
2013-01-17 20:52:00,20.0,11.0,30.37,West,261,0.0,0.0,67,0.00,,,0.00,,2013-01-18 02:52:00,
2013-01-17 21:02:00,21.0,12.0,30.37,West,261,0.0,0.0,68,0.00,,,0.00,,2013-01-18 03:02:00,
2013-01-17 21:12:00,21.0,12.0,30.37,West,261,0.0,0.0,68,0.00,,,0.00,,2013-01-18 03:12:00,
2013-01-17 21:22:00,22.0,12.0,30.37,West,261,0.0,0.0,65,0.00,,,0.00,,2013-01-18 03:22:00,
2013-01-17 21:33:00,22.0,12.0,30.37,West,261,0.0,0.0,64,0.00,,,0.00,,2013-01-18 03:33:00,
2013-01-17 21:42:00,22.0,12.0,30.37,West,261,0.0,0.0,64,0.00,,,0.00,,2013-01-18 03:42:00,
2013-01-17 21:53:00,22.0,11.0,30.34,North,357,0.0,4.0,61,0.00,,,0.00,,2013-01-18 03:53:00,
2013-01-17 22:02:00,22.0,11.0,30.34,North,357,0.0,0.0,61,0.00,,,0.00,,2013-01-18 04:02:00,
2013-01-17 22:12:00,22.0,11.0,30.34,North,357,0.0,0.0,61,0.00,,,0.00,,2013-01-18 04:12:00,
2013-01-17 22:22:00,21.0,9.0,30.34,NNE,20,0.0,0.0,59,0.00,,,0.00,,2013-01-18 04:22:00,
2013-01-17 22:32:00,21.0,9.0,30.34,NE,44,0.0,0.0,59,0.00,,,0.00,,2013-01-18 04:32:00,
2013-01-17 22:42:00,21.0,9.0,30.34,NE,44,0.0,0.0,59,0.00,,,0.00,,2013-01-18 04:42:00,
2013-01-17 22:53:00,21.0,9.0,30.34,ENE,58,0.0,0.0,58,0.00,,,0.00,,2013-01-18 04:53:00,
2013-01-17 23:03:00,21.0,9.0,30.31,NE,45,0.0,5.0,58,0.00,,,0.00,,2013-01-18 05:03:00,
2013-01-17 23:12:00,21.0,9.0,30.31,NE,45,0.0,5.0,58,0.00,,,0.00,,2013-01-18 05:12:00,
2013-01-17 23:22:00,21.0,8.0,30.31,NE,50,0.0,0.0,57,0.00,,,0.00,,2013-01-18 05:22:00,
2013-01-17 23:33:00,22.0,9.0,30.31,NE,50,0.0,0.0,57,0.00,,,0.00,,2013-01-18 05:33:00,
2013-01-17 23:42:00,22.0,9.0,30.31,NE,50,0.0,0.0,57,0.00,,,0.00,,2013-01-18 05:42:00,
2013-01-17 23:53:00,22.0,9.0,30.31,ESE,118,0.0,0.0,57,0.00,,,0.00,,2013-01-18 05:53:00,